Find OPS 8068

NORAD ID: 1580 Int'l Des: 1965-072 Owner: AFSSD Country: US operational
LEORETROGRADESSO

Live Position

Loading 3D Globe...

About OPS 8068

Description loading...

Upcoming Passes

Passes for default location (London). Set your location on the main map for personalized predictions.

Altitude History

Loading altitude history...

Two-Line Element Set

1 1580U 65072A 26105.39316191 .00000190 00000-0 71031-4 0 9997
2 1580 98.4117 263.9171 0228125 230.9631 127.1051 14.29613430124040
Epoch: Apr 15, 2026 • Age: 11 hours

Current Status

Altitude 664.1 km
Velocity 7.61 km/s
Sub-Earth Point -67.86°S, 91.08°W
Type other

Most Searched